Weather in Spas-Zagor'ye

Russia / Kaluga Oblast     55°03′03″N   36°35′36″E
temp.,
°C
wind,
m/s
gust,
m/s
humid.,
%
clouds,
%
prec.,
mm/h
press.,
hPa
HPBL,
m
6 may, thu
thu600:00+9ssw41385100 0.0 1007340
03:00+8s41291100 0.0 1007295
06:00+9s41387100 0.0 1006385
09:00+12s71572100 0.3 1004901
12:00+16s8165726 0.5 10031858
15:00+15ssw101558100 0.6 10021876
18:00+9wsw61189100 2.3 1006908
21:00+6sw41192100 2.3 1008477
7 may, fri
fri700:00+6sw41193100 0.0 1009439
03:00+4sw31094100 0.0 1010326
06:00+4wsw4109091 0.0 1011372
09:00+8wsw48650 0.0 1012757
12:00+13sw5841100 0.0 10122506
15:00+13sw494983 0.0 10122047
18:00+13ssw4855100 0.0 10111221
21:00+8sse31173100 0.1 1012310
8 may, sat
sat800:00+8se31180100 0.3 1011385
03:00+7sse61591100 2.6 10081271
06:00+7sse61694100 5.6 1006789
09:00+8sse61395100 8.1 1004863
12:00+8s3997100 4.8 1002771
15:00+9wsw3593100 6.9 1002345
18:00+8sw3993100 0.8 1003502
21:00+6w61094100 1.7 1006807
9 may, sun
sun900:00+4w5119293 0.1 10091032
03:00+3w5109262 0.2 1012745
06:00+3w4109361 0.0 1015575
09:00+3wnw4985100 0.1 10171072
12:00+9nw5852100 0.1 10191999
15:00+10nw585095 0.2 10211949
18:00+11nw475160 0.0 10221821
21:00+5w22705 0.0 102511
10 may, mon
mon1000:00+3wnw22805 0.0 102712
03:00+2w11815 0.0 102911
06:00+3wsw117637 0.0 103028
09:00+10wsw23555 0.0 1031443
12:00+14wsw23473 0.0 10311449
15:00+15wsw23455 0.0 10301572
18:00+15sw23585 0.0 1030777
21:00+9ssw22775 0.0 103111